SCP
0 0 0 0 0 0 0 0 -0 1 1 5 7 3 4 2 2 1 1 1 3 1
0 0 0 0 0 0 0 0 0 0 2 1 2 1 0 0 -1 1 0 1 2 3
0 0 0 0 0 0 0 0 0 0 0 0 4 2 0 0 1 1 1 3 3 3
0 0 0 0 0 0 0 0 0 0 0 0 2 4 4 3 2 2 2 4 4 2
0 0 0 0 0 0 0 0 0 0 0 0 0 3 3 2 3 2 4 4 2 3
0 0 0 0 0 0 0 0 0 0 0 0 0 0 3 3 3 5 5 3 2 5
0 0 0 0 0 0 0 0 0 0 0 0 1 0 1 3 4 5 4 2 3 4
0 0 0 0 0 0 0 0 0 0 0 0 0 1 2 5 4 4 2 2 4 4
0 0 0 0 0 0 0 0 0 0 0 0 1 0 0 4 5 3 1 4 4 3
0 0 0 0 0 0 0 0 0 0 0 0 0 0 -0 2 3 2 2 5 4 1
0 0 0 0 0 -0 0 -0 0 0 0 0 0 0 -0 0 3 2 2 4 2 1
0 0 0 0 0 -0 0 -0 -0 0 0 0 0 -0 0 0 3 2 2 1 1 1
0 0 0 0 0 0 -0 -0 -0 -0 0 0 0 0 0 2 4 1 1 1 1 1
0 0 0 0 0 0 -0 -0 -0 0 0 0 0 0 0 2 2 2 2 1 0 0
Wind_Speed_500mb
38 43 48 56 55 62 83 79 87 63 75 82 88 99 80 79 78 64 88 96 71 73
46 45 44 45 53 59 63 66 71 68 71 78 80 96 95 68 104 101 87 89 70 77
43 46 52 48 53 57 70 74 67 72 72 60 59 67 68 91 90 84 75 78 78 75
47 49 54 57 55 60 64 68 73 75 73 73 61 62 70 80 86 84 80 82 79 61
40 38 51 59 61 63 61 63 67 74 79 89 75 55 73 82 83 80 80 86 71 56
46 46 50 60 63 69 65 65 61 68 79 87 92 82 74 77 79 80 82 79 67 55
45 49 53 51 47 57 67 76 75 65 75 76 72 85 85 80 79 83 83 74 64 59
50 49 53 57 73 67 65 75 83 79 68 72 70 78 75 83 83 82 75 73 66 58
55 55 57 60 65 78 78 68 80 78 76 76 78 75 72 85 87 71 78 75 67 50
64 64 59 64 72 76 87 85 76 84 87 76 77 74 80 87 84 76 76 75 66 57
69 68 76 82 73 79 86 88 80 82 88 75 82 81 78 86 82 74 70 73 61 61
87 80 70 74 82 82 86 99 101 84 84 79 85 83 83 81 83 72 69 61 61 58
94 94 92 90 91 96 100 106 104 104 86 78 88 83 85 83 86 73 62 62 58 49
78 82 90 105 105 102 95 98 92 97 85 81 86 84 86 93 78 75 68 61 50 49
Wind_Direction_500mb
254 257 259 259 258 249 236 250 255 254 252 251 251 261 268 273 272 267 249 259 255 243
284 278 267 262 252 244 247 251 249 245 245 244 249 248 253 266 257 264 244 255 255 239
272 279 283 277 268 263 257 258 257 249 245 244 257 261 251 250 263 258 251 242 246 242
273 278 269 277 277 274 272 267 258 254 250 245 239 246 252 257 257 249 243 241 241 239
267 277 276 273 274 271 271 269 266 259 251 247 241 235 241 246 245 239 236 240 239 227
265 271 276 268 271 269 265 263 261 267 260 255 245 237 241 244 242 238 234 242 225 221
260 270 262 262 264 267 268 269 271 251 260 256 245 246 242 246 244 237 237 237 222 219
263 266 280 270 263 262 270 267 269 254 257 250 248 239 234 236 239 235 230 222 220 220
270 267 262 264 262 260 258 268 265 264 249 253 244 236 228 233 234 236 219 214 218 208
259 256 257 264 266 267 262 257 264 263 248 251 240 236 224 229 229 218 213 211 212 204
254 257 260 269 265 263 259 261 253 261 255 245 237 235 228 224 219 215 211 212 210 204
256 253 254 259 261 258 258 257 255 258 258 244 232 228 226 216 210 208 202 203 205 203
251 248 252 252 257 249 263 260 260 248 256 240 231 227 219 210 202 199 196 198 201 204
251 251 251 261 255 248 258 259 252 239 248 232 224 221 214 201 194 193 189 192 193 194
Wind_Speed_850mb
38 43 48 56 55 62 83 79 87 63 75 82 88 99 80 79 78 64 88 96 71 73
46 45 44 45 53 59 63 66 71 68 71 78 80 96 95 68 104 101 87 89 70 77
43 46 52 48 53 57 70 74 67 72 72 60 59 67 68 91 90 84 75 78 78 75
47 49 54 57 55 60 64 68 73 75 73 73 61 62 70 80 86 84 80 82 79 61
40 38 51 59 61 63 61 63 67 74 79 89 75 55 73 82 83 80 80 86 71 56
46 46 50 60 63 69 65 65 61 68 79 87 92 82 74 77 79 80 82 79 67 55
45 49 53 51 47 57 67 76 75 65 75 76 72 85 85 80 79 83 83 74 64 59
50 49 53 57 73 67 65 75 83 79 68 72 70 78 75 83 83 82 75 73 66 58
55 55 57 60 65 78 78 68 80 78 76 76 78 75 72 85 87 71 78 75 67 50
64 64 59 64 72 76 87 85 76 84 87 76 77 74 80 87 84 76 76 75 66 57
69 68 76 82 73 79 86 88 80 82 88 75 82 81 78 86 82 74 70 73 61 61
87 80 70 74 82 82 86 99 101 84 84 79 85 83 83 81 83 72 69 61 61 58
94 94 92 90 91 96 100 106 104 104 86 78 88 83 85 83 86 73 62 62 58 49
78 82 90 105 105 102 95 98 92 97 85 81 86 84 86 93 78 75 68 61 50 49
Wind_Direction_850mb
254 257 259 259 258 249 236 250 255 254 252 251 251 261 268 273 272 267 249 259 255 243
284 278 267 262 252 244 247 251 249 245 245 244 249 248 253 266 257 264 244 255 255 239
272 279 283 277 268 263 257 258 257 249 245 244 257 261 251 250 263 258 251 242 246 242
273 278 269 277 277 274 272 267 258 254 250 245 239 246 252 257 257 249 243 241 241 239
267 277 276 273 274 271 271 269 266 259 251 247 241 235 241 246 245 239 236 240 239 227
265 271 276 268 271 269 265 263 261 267 260 255 245 237 241 244 242 238 234 242 225 221
260 270 262 262 264 267 268 269 271 251 260 256 245 246 242 246 244 237 237 237 222 219
263 266 280 270 263 262 270 267 269 254 257 250 248 239 234 236 239 235 230 222 220 220
270 267 262 264 262 260 258 268 265 264 249 253 244 236 228 233 234 236 219 214 218 208
259 256 257 264 266 267 262 257 264 263 248 251 240 236 224 229 229 218 213 211 212 204
254 257 260 269 265 263 259 261 253 261 255 245 237 235 228 224 219 215 211 212 210 204
256 253 254 259 261 258 258 257 255 258 258 244 232 228 226 216 210 208 202 203 205 203
251 248 252 252 257 249 263 260 260 248 256 240 231 227 219 210 202 199 196 198 201 204
251 251 251 261 255 248 258 259 252 239 248 232 224 221 214 201 194 193 189 192 193 194